Home > Time Zones > World Clock > Weather > Iran > Gorgan > Past weeks

Flag for Iran Weather past 2 weeks in Gorgan, Iran

Now
73 °F

Passing clouds.


Feels Like: 74 °F
Forecast: 66 / 87 °F
Wind: 9 mph from South

Location: Gorgan Airport

Current Time: Sep 21, 2014 at 6:41:20 AM

Latest Report: Sep 21, 2014 at 5:30 AM


Visibility: N/A

Pressure: 29.86 "Hg

Humidity: 78%

Dew point: 66 °F

Location of GorganLocation

Historic Weather in Gorgan — Graph

°F

Gorgan temperature yesterday

Maximum temperature yesterday: 88 °F (at 1:30 PM)
Minimum temperature yesterday: 70 °F (at 7:30 AM)
Average temperature yesterday: 79 °F

Past Weeks' High & Low Weather Summary

 TemperatureHumidityPressure
High95 °F (Sep 9, 3:30 PM)94% (Sep 7, 7:30 AM)30.09 "Hg (Sep 7, 7:30 AM)
Low64 °F (Sep 19, 6:30 AM)31% (Sep 18, 2:30 PM)29.68 "Hg (Sep 9, 5:30 PM)
Average81 °F67%29.88 "Hg
* Reported Sep 6 5:30 AM — Sep 21 5:30 AM, Gorgan, Weather by CustomWeather, © 2014

Note: Actual official high and low records may vary slightly from our data, if they occured in-between our weather recording intervals... More about our weather records

Advertising

Gorgan weather history for previous 24 hours

 ConditionsComfort  
Time TempWeatherWind HumidityBarometerVisibility
5:30 AM
Sep 21
73 °FPassing clouds.9 mph78%29.86 "HgN/A
4:30 AM73 °FPassing clouds.7 mph78%29.86 "HgN/A
3:30 AM73 °FPassing clouds.9 mph78%29.86 "HgN/A
2:30 AM75 °FPassing clouds.7 mph78%29.86 "HgN/A
1:30 AM75 °FPassing clouds.9 mph78%29.83 "HgN/A
12:30 AM72 °FPassing clouds.5 mph88%29.83 "HgN/A
11:30 PM
Sep 20
73 °FPassing clouds.5 mph83%29.83 "HgN/A
10:30 PM73 °FPassing clouds.5 mph83%29.83 "HgN/A
9:30 PM75 °FPassing clouds.7 mph78%29.86 "Hg5 mi
5:30 PM86 °FScattered clouds.12 mph52%29.83 "HgN/A
4:30 PM86 °FScattered clouds.14 mph52%29.86 "HgN/A
3:30 PM88 °FPassing clouds.No wind46%29.86 "Hg4 mi
2:30 PM88 °FScattered clouds.7 mph46%29.89 "Hg4 mi
1:30 PM88 °FPassing clouds.5 mph49%29.92 "Hg4 mi
12:30 PM86 °FPassing clouds.9 mph49%29.95 "Hg4 mi
11:30 AM82 °FPassing clouds.No wind62%29.98 "Hg4 mi
10:30 AM82 °FSunny.No wind62%30.01 "Hg4 mi
9:30 AM81 °FSunny.No wind66%30.01 "Hg4 mi
8:30 AM77 °FSunny.No wind69%30.01 "Hg4 mi
7:30 AM70 °FClear.No wind88%30.01 "Hg4 mi
6:30 AM72 °FClear.7 mph83%30.01 "Hg4 mi
Weather by CustomWeather, © 2014

See weather overviewHow to use our weather pages